Time,TemperatureF,DewpointF,PressureIn,WindDirection,WindDirectionDegrees,WindSpeedMPH,WindSpeedGustMPH,Humidity,HourlyPrecipIn,Conditions,Clouds,dailyrainin,SoftwareType,DateUTC
2013-02-24 00:00:00,39.3,37.7,29.76,SSW,209,0.0,0.0,94,0.00,,,0.00,Wunderground v.1.15,2013-02-24 05:00:00,
2013-02-24 00:05:00,39.2,37.6,29.76,SSW,209,0.0,0.0,94,0.00,,,0.00,Wunderground v.1.15,2013-02-24 05:05:00,
2013-02-24 00:10:00,39.6,38.3,29.76,SSW,209,0.0,0.0,95,0.00,,,0.00,Wunderground v.1.15,2013-02-24 05:10:00,
2013-02-24 00:15:00,39.7,38.4,29.76,SSW,209,0.0,0.0,95,0.00,,,0.00,Wunderground v.1.15,2013-02-24 05:15:00,
2013-02-24 00:20:00,40.0,38.7,29.76,SSW,209,0.0,0.0,95,0.00,,,0.00,Wunderground v.1.15,2013-02-24 05:20:00,
2013-02-24 00:25:00,39.5,37.9,29.75,SSW,209,0.0,0.0,94,0.00,,,0.00,Wunderground v.1.15,2013-02-24 05:25:00,
2013-02-24 00:35:00,38.8,37.2,29.75,SSW,209,0.0,0.0,94,0.00,,,0.00,Wunderground v.1.15,2013-02-24 05:35:00,
2013-02-24 00:40:00,38.6,37.0,29.76,SSW,209,0.0,0.0,94,0.00,,,0.00,Wunderground v.1.15,2013-02-24 05:40:00,
2013-02-24 00:45:00,38.9,37.6,29.76,SSW,209,0.0,0.0,95,0.00,,,0.00,Wunderground v.1.15,2013-02-24 05:45:00,
2013-02-24 00:50:00,38.9,37.6,29.76,SSW,209,0.0,0.0,95,0.00,,,0.00,Wunderground v.1.15,2013-02-24 05:50:00,
2013-02-24 00:55:00,38.6,37.0,29.77,SSW,209,0.0,0.0,94,0.00,,,0.00,Wunderground v.1.15,2013-02-24 05:55:00,
2013-02-24 01:00:00,38.3,36.7,29.77,SSW,209,0.0,0.0,94,0.00,,,0.00,Wunderground v.1.15,2013-02-24 06:00:00,
2013-02-24 01:10:00,37.8,36.2,29.78,SSW,209,0.0,0.0,94,0.00,,,0.00,Wunderground v.1.15,2013-02-24 06:10:00,
2013-02-24 01:15:00,37.7,36.1,29.79,WNW,285,0.0,0.0,94,0.00,,,0.00,Wunderground v.1.15,2013-02-24 06:15:00,
2013-02-24 01:20:00,37.6,36.0,29.78,WNW,285,0.0,0.0,94,0.00,,,0.00,Wunderground v.1.15,2013-02-24 06:20:00,
2013-02-24 01:25:00,37.5,35.9,29.78,WNW,285,0.0,0.0,94,0.00,,,0.00,Wunderground v.1.15,2013-02-24 06:25:00,
2013-02-24 01:30:00,37.6,36.3,29.78,WNW,285,0.0,0.0,95,0.00,,,0.00,Wunderground v.1.15,2013-02-24 06:30:00,
2013-02-24 01:35:00,37.9,36.6,29.77,WNW,285,0.0,0.0,95,0.00,,,0.00,Wunderground v.1.15,2013-02-24 06:35:00,
2013-02-24 01:40:00,38.2,36.9,29.78,WNW,285,0.0,0.0,95,0.00,,,0.00,Wunderground v.1.15,2013-02-24 06:40:00,
2013-02-24 01:45:00,38.4,37.1,29.77,WNW,285,0.0,0.0,95,0.00,,,0.00,Wunderground v.1.15,2013-02-24 06:45:00,
2013-02-24 01:50:00,38.6,37.3,29.77,WNW,285,0.0,0.0,95,0.00,,,0.00,Wunderground v.1.15,2013-02-24 06:50:00,
2013-02-24 01:55:00,38.8,37.5,29.77,WNW,285,0.0,0.0,95,0.00,,,0.00,Wunderground v.1.15,2013-02-24 06:55:00,
2013-02-24 02:00:00,38.9,37.9,29.77,WNW,285,0.0,0.0,96,0.00,,,0.00,Wunderground v.1.15,2013-02-24 07:00:00,
2013-02-24 02:10:00,39.1,37.8,29.76,WNW,285,0.0,0.0,95,0.00,,,0.00,Wunderground v.1.15,2013-02-24 07:10:00,
2013-02-24 02:15:00,39.1,37.8,29.76,WNW,285,0.0,0.0,95,0.00,,,0.00,Wunderground v.1.15,2013-02-24 07:15:00,
2013-02-24 02:20:00,39.0,37.7,29.76,WNW,285,0.0,0.0,95,0.00,,,0.00,Wunderground v.1.15,2013-02-24 07:20:00,
2013-02-24 02:25:00,38.9,37.6,29.77,NNW,341,1.0,1.0,95,0.00,,,0.00,Wunderground v.1.15,2013-02-24 07:25:00,
2013-02-24 02:30:00,38.7,37.4,29.77,NNW,344,1.0,1.0,95,0.00,,,0.00,Wunderground v.1.15,2013-02-24 07:30:00,
2013-02-24 02:35:00,38.6,37.3,29.78,NNW,344,1.0,1.0,95,0.00,,,0.00,Wunderground v.1.15,2013-02-24 07:35:00,
2013-02-24 02:45:00,38.2,36.9,29.76,NNW,344,0.0,0.0,95,0.00,,,0.00,Wunderground v.1.15,2013-02-24 07:45:00,
2013-02-24 02:50:00,38.0,36.7,29.76,NNW,344,0.0,0.0,95,0.00,,,0.00,Wunderground v.1.15,2013-02-24 07:50:00,
2013-02-24 02:55:00,37.6,36.3,29.76,NNW,344,0.0,0.0,95,0.00,,,0.00,Wunderground v.1.15,2013-02-24 07:55:00,
2013-02-24 03:00:00,37.4,36.1,29.76,NNW,344,0.0,0.0,95,0.00,,,0.00,Wunderground v.1.15,2013-02-24 08:00:00,
2013-02-24 03:05:00,37.3,36.0,29.76,NNW,344,0.0,0.0,95,0.00,,,0.00,Wunderground v.1.15,2013-02-24 08:05:00,
2013-02-24 03:15:00,37.4,36.1,29.76,NNW,335,0.0,0.0,95,0.00,,,0.00,Wunderground v.1.15,2013-02-24 08:15:00,
2013-02-24 03:20:00,37.3,36.0,29.76,NNW,335,0.0,0.0,95,0.00,,,0.00,Wunderground v.1.15,2013-02-24 08:20:00,
2013-02-24 03:25:00,37.2,35.9,29.76,NNW,334,0.0,0.0,95,0.00,,,0.00,Wunderground v.1.15,2013-02-24 08:25:00,
2013-02-24 03:30:00,37.1,35.8,29.76,NNW,334,0.0,0.0,95,0.00,,,0.00,Wunderground v.1.15,2013-02-24 08:30:00,
2013-02-24 03:35:00,37.0,35.7,29.76,NNW,334,0.0,0.0,95,0.00,,,0.00,Wunderground v.1.15,2013-02-24 08:35:00,
2013-02-24 03:40:00,36.9,35.6,29.76,NNW,334,0.0,0.0,95,0.00,,,0.00,Wunderground v.1.15,2013-02-24 08:40:00,
2013-02-24 03:50:00,36.6,35.3,29.76,NNW,334,0.0,0.0,95,0.00,,,0.01,Wunderground v.1.15,2013-02-24 08:50:00,
2013-02-24 03:55:00,36.3,35.0,29.76,NNW,334,0.0,0.0,95,0.00,,,0.01,Wunderground v.1.15,2013-02-24 08:55:00,
2013-02-24 04:00:00,36.1,34.8,29.76,NNW,335,0.0,0.0,95,0.00,,,0.01,Wunderground v.1.15,2013-02-24 09:00:00,
2013-02-24 04:05:00,35.7,34.1,29.77,NNW,335,0.0,0.0,94,0.00,,,0.01,Wunderground v.1.15,2013-02-24 09:05:00,
2013-02-24 04:10:00,35.3,34.0,29.77,NNW,336,0.0,2.0,95,0.00,,,0.01,Wunderground v.1.15,2013-02-24 09:10:00,
2013-02-24 04:20:00,34.5,33.0,29.77,NNW,337,0.0,1.0,94,0.00,,,0.01,Wunderground v.1.15,2013-02-24 09:20:00,
2013-02-24 04:25:00,34.5,33.2,29.77,NNW,337,0.0,1.0,95,0.00,,,0.01,Wunderground v.1.15,2013-02-24 09:25:00,
2013-02-24 04:30:00,34.6,33.3,29.77,NNW,337,0.0,0.0,95,0.00,,,0.01,Wunderground v.1.15,2013-02-24 09:30:00,
2013-02-24 04:35:00,35.1,33.8,29.78,NNW,338,0.0,0.0,95,0.00,,,0.01,Wunderground v.1.15,2013-02-24 09:35:00,
2013-02-24 04:40:00,35.4,34.4,29.78,NNW,338,0.0,0.0,96,0.00,,,0.01,Wunderground v.1.15,2013-02-24 09:40:00,
2013-02-24 04:45:00,36.2,35.2,29.78,East,81,0.0,0.0,96,0.00,,,0.01,Wunderground v.1.15,2013-02-24 09:45:00,
2013-02-24 04:50:00,36.3,35.3,29.78,East,81,0.0,0.0,96,0.00,,,0.01,Wunderground v.1.15,2013-02-24 09:50:00,
2013-02-24 04:55:00,36.0,34.7,29.78,East,81,0.0,0.0,95,0.00,,,0.01,Wunderground v.1.15,2013-02-24 09:55:00,
2013-02-24 05:00:00,35.4,33.8,29.78,East,81,0.0,0.0,94,0.00,,,0.01,Wunderground v.1.15,2013-02-24 10:00:00,
2013-02-24 05:05:00,35.6,34.3,29.79,East,81,0.0,0.0,95,0.00,,,0.01,Wunderground v.1.15,2013-02-24 10:05:00,
2013-02-24 05:10:00,35.7,34.4,29.79,East,81,0.0,0.0,95,0.00,,,0.01,Wunderground v.1.15,2013-02-24 10:10:00,
2013-02-24 05:15:00,35.8,34.5,29.79,East,81,0.0,0.0,95,0.00,,,0.01,Wunderground v.1.15,2013-02-24 10:15:00,
2013-02-24 05:25:00,35.7,34.4,29.80,East,81,0.0,0.0,95,0.00,,,0.01,Wunderground v.1.15,2013-02-24 10:25:00,
2013-02-24 05:30:00,35.6,34.3,29.79,East,81,0.0,0.0,95,0.00,,,0.01,Wunderground v.1.15,2013-02-24 10:30:00,
2013-02-24 05:35:00,35.7,34.4,29.79,East,81,0.0,0.0,95,0.00,,,0.01,Wunderground v.1.15,2013-02-24 10:35:00,
2013-02-24 05:40:00,36.2,35.2,29.80,East,81,0.0,0.0,96,0.00,,,0.01,Wunderground v.1.15,2013-02-24 10:40:00,
2013-02-24 05:45:00,36.6,35.6,29.80,East,81,0.0,0.0,96,0.00,,,0.01,Wunderground v.1.15,2013-02-24 10:45:00,
2013-02-24 05:55:00,37.0,35.7,29.81,East,81,0.0,0.0,95,0.00,,,0.01,Wunderground v.1.15,2013-02-24 10:55:00,
2013-02-24 06:00:00,37.4,36.1,29.81,East,81,0.0,0.0,95,0.00,,,0.01,Wunderground v.1.15,2013-02-24 11:00:00,
2013-02-24 06:05:00,37.0,35.4,29.81,North,360,0.0,5.0,94,0.00,,,0.01,Wunderground v.1.15,2013-02-24 11:05:00,
2013-02-24 06:10:00,36.7,34.9,29.81,North,360,1.0,2.0,93,0.00,,,0.01,Wunderground v.1.15,2013-02-24 11:10:00,
2013-02-24 06:15:00,36.6,35.0,29.81,NNE,32,2.0,2.0,94,0.00,,,0.01,Wunderground v.1.15,2013-02-24 11:15:00,
2013-02-24 06:20:00,36.5,34.7,29.81,NNE,31,1.0,1.0,93,0.00,,,0.01,Wunderground v.1.15,2013-02-24 11:20:00,
2013-02-24 06:30:00,37.4,35.3,29.81,NNE,31,0.0,0.0,92,0.00,,,0.01,Wunderground v.1.15,2013-02-24 11:30:00,
2013-02-24 06:35:00,37.2,34.5,29.81,NNE,31,0.0,0.0,90,0.00,,,0.01,Wunderground v.1.15,2013-02-24 11:35:00,
2013-02-24 06:40:00,37.1,34.7,29.81,ENE,74,0.0,2.0,91,0.00,,,0.01,Wunderground v.1.15,2013-02-24 11:40:00,
2013-02-24 06:45:00,37.6,35.2,29.82,ENE,71,1.0,2.0,91,0.00,,,0.01,Wunderground v.1.15,2013-02-24 11:45:00,
2013-02-24 06:50:00,37.5,34.8,29.82,ENE,71,1.0,1.0,90,0.00,,,0.01,Wunderground v.1.15,2013-02-24 11:50:00,
2013-02-24 07:00:00,37.2,34.8,29.83,ENE,71,0.0,0.0,91,0.00,,,0.01,Wunderground v.1.15,2013-02-24 12:00:00,
2013-02-24 07:05:00,36.9,34.5,29.84,ENE,71,0.0,0.0,91,0.00,,,0.01,Wunderground v.1.15,2013-02-24 12:05:00,
2013-02-24 07:10:00,36.7,34.3,29.84,ENE,71,0.0,0.0,91,0.00,,,0.01,Wunderground v.1.15,2013-02-24 12:10:00,
2013-02-24 07:15:00,36.6,34.2,29.85,ENE,71,0.0,0.0,91,0.00,,,0.01,Wunderground v.1.15,2013-02-24 12:15:00,
2013-02-24 07:20:00,36.4,34.0,29.85,ENE,71,0.0,0.0,91,0.00,,,0.01,Wunderground v.1.15,2013-02-24 12:20:00,
2013-02-24 07:25:00,36.4,34.3,29.85,ENE,71,0.0,0.0,92,0.00,,,0.01,Wunderground v.1.15,2013-02-24 12:25:00,
2013-02-24 07:35:00,37.0,34.9,29.85,ENE,71,0.0,0.0,92,0.00,,,0.01,Wunderground v.1.15,2013-02-24 12:35:00,
2013-02-24 07:40:00,37.0,34.6,29.85,ENE,71,0.0,0.0,91,0.00,,,0.01,Wunderground v.1.15,2013-02-24 12:40:00,
2013-02-24 07:45:00,37.2,35.1,29.85,ENE,71,0.0,0.0,92,0.00,,,0.01,Wunderground v.1.15,2013-02-24 12:45:00,
2013-02-24 07:50:00,37.5,35.4,29.85,ENE,71,0.0,0.0,92,0.00,,,0.01,Wunderground v.1.15,2013-02-24 12:50:00,
2013-02-24 07:55:00,37.7,35.6,29.86,ENE,71,0.0,0.0,92,0.00,,,0.01,Wunderground v.1.15,2013-02-24 12:55:00,
2013-02-24 08:01:00,37.8,36.0,29.86,ENE,71,0.0,0.0,93,0.00,,,0.01,Wunderground v.1.15,2013-02-24 13:01:00,
2013-02-24 08:10:00,38.4,36.6,29.86,ENE,71,0.0,0.0,93,0.00,,,0.01,Wunderground v.1.15,2013-02-24 13:10:00,
2013-02-24 08:15:00,39.3,37.7,29.86,ENE,71,0.0,0.0,94,0.00,,,0.01,Wunderground v.1.15,2013-02-24 13:15:00,
2013-02-24 08:20:00,39.7,38.1,29.87,ENE,71,0.0,0.0,94,0.00,,,0.01,Wunderground v.1.15,2013-02-24 13:20:00,
2013-02-24 08:25:00,40.0,38.4,29.87,ENE,71,0.0,0.0,94,0.00,,,0.01,Wunderground v.1.15,2013-02-24 13:25:00,
2013-02-24 08:30:00,40.6,39.3,29.87,ENE,71,0.0,0.0,95,0.00,,,0.01,Wunderground v.1.15,2013-02-24 13:30:00,
2013-02-24 08:40:00,42.3,40.7,29.87,ENE,71,0.0,0.0,94,0.00,,,0.01,Wunderground v.1.15,2013-02-24 13:40:00,
2013-02-24 08:45:00,42.9,40.2,29.88,ENE,71,0.0,0.0,90,0.00,,,0.01,Wunderground v.1.15,2013-02-24 13:45:00,
2013-02-24 08:50:00,43.5,40.8,29.88,ENE,71,0.0,0.0,90,0.00,,,0.01,Wunderground v.1.15,2013-02-24 13:50:00,
2013-02-24 08:55:00,44.2,39.1,29.88,ENE,71,0.0,0.0,82,0.00,,,0.01,Wunderground v.1.15,2013-02-24 13:55:00,
2013-02-24 09:01:00,45.0,37.6,29.88,ENE,71,0.0,0.0,75,0.00,,,0.01,Wunderground v.1.15,2013-02-24 14:01:00,
2013-02-24 09:10:00,46.4,37.9,29.88,NNE,19,0.0,4.0,72,0.00,,,0.01,Wunderground v.1.15,2013-02-24 14:10:00,
2013-02-24 09:15:00,46.9,36.1,29.89,NNE,18,1.0,4.0,66,0.00,,,0.01,Wunderground v.1.15,2013-02-24 14:15:00,
2013-02-24 09:20:00,47.6,35.6,29.88,NNE,25,3.0,3.0,63,0.00,,,0.01,Wunderground v.1.15,2013-02-24 14:20:00,
2013-02-24 09:25:00,48.1,35.7,29.89,ENE,66,3.0,3.0,62,0.00,,,0.01,Wunderground v.1.15,2013-02-24 14:25:00,
2013-02-24 09:30:00,48.7,35.0,29.89,NNE,27,3.0,4.0,59,0.00,,,0.01,Wunderground v.1.15,2013-02-24 14:30:00,
2013-02-24 09:35:00,49.1,34.5,29.89,NE,37,5.0,5.0,57,0.00,,,0.01,Wunderground v.1.15,2013-02-24 14:35:00,
2013-02-24 09:40:00,49.4,34.8,29.89,North,5,5.0,6.0,57,0.00,,,0.01,Wunderground v.1.15,2013-02-24 14:40:00,
2013-02-24 09:45:00,49.7,34.6,29.89,North,360,4.0,6.0,56,0.00,,,0.01,Wunderground v.1.15,2013-02-24 14:45:00,
2013-02-24 09:50:00,50.0,34.5,29.89,North,5,3.0,3.0,55,0.00,,,0.01,Wunderground v.1.15,2013-02-24 14:50:00,
2013-02-24 09:55:00,50.3,35.2,29.88,North,350,2.0,4.0,56,0.00,,,0.01,Wunderground v.1.15,2013-02-24 14:55:00,
2013-02-24 10:00:00,50.5,34.5,29.89,NE,52,2.0,2.0,54,0.00,,,0.01,Wunderground v.1.15,2013-02-24 15:00:00,
2013-02-24 10:10:00,51.5,34.4,29.88,West,259,0.0,0.0,52,0.00,,,0.01,Wunderground v.1.15,2013-02-24 15:10:00,
2013-02-24 10:20:00,52.0,34.9,29.88,SW,227,0.0,0.0,52,0.00,,,0.01,Wunderground v.1.15,2013-02-24 15:20:00,
2013-02-24 10:25:00,52.3,34.2,29.88,WSW,257,0.0,0.0,50,0.00,,,0.01,Wunderground v.1.15,2013-02-24 15:25:00,
2013-02-24 10:30:00,52.5,35.4,29.88,SSW,207,1.0,1.0,52,0.00,,,0.01,Wunderground v.1.15,2013-02-24 15:30:00,
2013-02-24 10:35:00,52.8,36.1,29.88,SSW,209,1.0,1.0,53,0.00,,,0.01,Wunderground v.1.15,2013-02-24 15:35:00,
2013-02-24 10:40:00,53.1,35.9,29.88,SW,216,0.0,0.0,52,0.00,,,0.01,Wunderground v.1.15,2013-02-24 15:40:00,
2013-02-24 10:50:00,53.4,33.7,29.88,NE,41,1.0,4.0,47,0.00,,,0.01,Wunderground v.1.15,2013-02-24 15:50:00,
2013-02-24 10:55:00,53.4,36.7,29.88,NE,51,1.0,4.0,53,0.00,,,0.01,Wunderground v.1.15,2013-02-24 15:55:00,
2013-02-24 11:00:00,53.6,31.0,29.88,East,80,1.0,4.0,42,0.00,,,0.01,Wunderground v.1.15,2013-02-24 16:00:00,
2013-02-24 11:10:00,54.2,33.3,29.88,North,360,4.0,4.0,45,0.00,,,0.01,Wunderground v.1.15,2013-02-24 16:10:00,
2013-02-24 11:15:00,54.5,35.2,29.88,NW,322,3.0,4.0,48,0.00,,,0.01,Wunderground v.1.15,2013-02-24 16:15:00,
2013-02-24 11:25:00,55.2,34.2,29.88,NNW,332,0.0,1.0,45,0.00,,,0.01,Wunderground v.1.15,2013-02-24 16:25:00,
2013-02-24 11:30:00,55.7,32.3,29.88,NNW,348,0.0,0.0,41,0.00,,,0.01,Wunderground v.1.15,2013-02-24 16:30:00,
2013-02-24 11:35:00,56.1,33.9,29.88,ENE,57,2.0,6.0,43,0.00,,,0.01,Wunderground v.1.15,2013-02-24 16:35:00,
2013-02-24 11:40:00,56.1,30.2,29.87,NE,42,3.0,5.0,37,0.00,,,0.01,Wunderground v.1.15,2013-02-24 16:40:00,
2013-02-24 11:45:00,56.1,30.8,29.87,NE,55,4.0,5.0,38,0.00,,,0.01,Wunderground v.1.15,2013-02-24 16:45:00,
2013-02-24 11:55:00,56.5,29.8,29.87,NNW,327,3.0,8.0,36,0.00,,,0.01,Wunderground v.1.15,2013-02-24 16:55:00,
2013-02-24 12:01:00,56.8,32.7,29.87,NNW,335,6.0,11.0,40,0.00,,,0.01,Wunderground v.1.15,2013-02-24 17:01:00,
2013-02-24 12:10:00,57.2,29.8,29.87,NNE,20,10.0,10.0,35,0.00,,,0.01,Wunderground v.1.15,2013-02-24 17:10:00,
2013-02-24 12:15:00,57.4,28.5,29.87,North,355,9.0,10.0,33,0.00,,,0.01,Wunderground v.1.15,2013-02-24 17:15:00,
2013-02-24 12:20:00,57.7,29.5,29.86,NE,55,8.0,8.0,34,0.00,,,0.01,Wunderground v.1.15,2013-02-24 17:20:00,
2013-02-24 12:30:00,58.0,30.5,29.86,NNE,16,9.0,9.0,35,0.00,,,0.01,Wunderground v.1.15,2013-02-24 17:30:00,
2013-02-24 12:35:00,58.2,30.7,29.86,North,9,10.0,10.0,35,0.00,,,0.01,Wunderground v.1.15,2013-02-24 17:35:00,
2013-02-24 12:40:00,58.4,28.6,29.85,North,351,9.0,16.0,32,0.00,,,0.01,Wunderground v.1.15,2013-02-24 17:40:00,
2013-02-24 12:45:00,58.4,30.1,29.85,NNW,336,9.0,16.0,34,0.00,,,0.01,Wunderground v.1.15,2013-02-24 17:45:00,
2013-02-24 12:50:00,58.8,29.7,29.85,NNE,14,7.0,7.0,33,0.00,,,0.01,Wunderground v.1.15,2013-02-24 17:50:00,
2013-02-24 13:01:00,59.3,28.6,29.85,NNE,15,9.0,9.0,31,0.00,,,0.01,Wunderground v.1.15,2013-02-24 18:01:00,
2013-02-24 13:10:00,59.4,29.5,29.84,North,360,8.0,10.0,32,0.00,,,0.01,Wunderground v.1.15,2013-02-24 18:10:00,
2013-02-24 13:15:00,59.7,30.5,29.84,North,360,8.0,10.0,33,0.00,,,0.01,Wunderground v.1.15,2013-02-24 18:15:00,
2013-02-24 13:20:00,59.6,28.9,29.85,NNE,13,9.0,12.0,31,0.00,,,0.01,Wunderground v.1.15,2013-02-24 18:20:00,
2013-02-24 13:25:00,59.6,28.1,29.84,North,11,10.0,12.0,30,0.00,,,0.01,Wunderground v.1.15,2013-02-24 18:25:00,
2013-02-24 13:35:00,60.0,28.4,29.84,NNE,27,8.0,10.0,30,0.00,,,0.01,Wunderground v.1.15,2013-02-24 18:35:00,
2013-02-24 13:40:00,60.0,29.2,29.84,NNE,24,9.0,9.0,31,0.00,,,0.01,Wunderground v.1.15,2013-02-24 18:40:00,
2013-02-24 13:45:00,60.4,28.8,29.84,NNE,17,8.0,10.0,30,0.00,,,0.01,Wunderground v.1.15,2013-02-24 18:45:00,
2013-02-24 13:50:00,60.2,27.8,29.83,NNE,26,8.0,9.0,29,0.00,,,0.01,Wunderground v.1.15,2013-02-24 18:50:00,
2013-02-24 13:55:00,60.0,30.0,29.83,NNW,334,8.0,9.0,32,0.00,,,0.01,Wunderground v.1.15,2013-02-24 18:55:00,
2013-02-24 14:01:00,60.2,28.6,29.83,NE,43,6.0,6.0,30,0.00,,,0.01,Wunderground v.1.15,2013-02-24 19:01:00,
2013-02-24 14:10:00,60.7,31.4,29.83,North,11,6.0,6.0,33,0.00,,,0.01,Wunderground v.1.15,2013-02-24 19:10:00,
2013-02-24 14:15:00,60.8,29.9,29.83,NE,47,5.0,6.0,31,0.00,,,0.01,Wunderground v.1.15,2013-02-24 19:15:00,
2013-02-24 14:20:00,60.5,29.7,29.83,ENE,76,3.0,3.0,31,0.00,,,0.01,Wunderground v.1.15,2013-02-24 19:20:00,
2013-02-24 14:25:00,60.5,31.2,29.83,NNE,14,4.0,4.0,33,0.00,,,0.01,Wunderground v.1.15,2013-02-24 19:25:00,
2013-02-24 14:30:00,60.7,29.9,29.83,NE,34,4.0,4.0,31,0.00,,,0.01,Wunderground v.1.15,2013-02-24 19:30:00,
2013-02-24 14:40:00,61.0,30.9,29.83,NE,47,3.0,6.0,32,0.00,,,0.01,Wunderground v.1.15,2013-02-24 19:40:00,
2013-02-24 14:45:00,61.0,31.7,29.83,ENE,76,3.0,6.0,33,0.00,,,0.01,Wunderground v.1.15,2013-02-24 19:45:00,
2013-02-24 14:50:00,61.0,30.1,29.82,North,5,5.0,7.0,31,0.00,,,0.01,Wunderground v.1.15,2013-02-24 19:50:00,
2013-02-24 14:55:00,60.9,30.8,29.83,NE,36,6.0,7.0,32,0.00,,,0.01,Wunderground v.1.15,2013-02-24 19:55:00,
2013-02-24 15:01:00,60.9,30.0,29.83,East,83,4.0,7.0,31,0.00,,,0.01,Wunderground v.1.15,2013-02-24 20:01:00,
2013-02-24 15:10:00,60.8,30.7,29.82,ENE,59,3.0,4.0,32,0.00,,,0.01,Wunderground v.1.15,2013-02-24 20:10:00,
2013-02-24 15:15:00,60.8,30.7,29.82,ENE,73,3.0,4.0,32,0.00,,,0.01,Wunderground v.1.15,2013-02-24 20:15:00,
2013-02-24 15:20:00,60.8,31.5,29.83,NE,50,4.0,7.0,33,0.00,,,0.01,Wunderground v.1.15,2013-02-24 20:20:00,
2013-02-24 15:25:00,60.7,29.9,29.83,NE,52,5.0,8.0,31,0.00,,,0.01,Wunderground v.1.15,2013-02-24 20:25:00,
2013-02-24 15:30:00,60.5,32.0,29.83,NE,50,5.0,6.0,34,0.00,,,0.01,Wunderground v.1.15,2013-02-24 20:30:00,
2013-02-24 15:35:00,60.4,28.8,29.83,ENE,67,5.0,6.0,30,0.00,,,0.01,Wunderground v.1.15,2013-02-24 20:35:00,
2013-02-24 15:40:00,60.4,29.6,29.83,ENE,60,6.0,6.0,31,0.00,,,0.01,Wunderground v.1.15,2013-02-24 20:40:00,
2013-02-24 15:45:00,60.3,30.3,29.83,East,98,5.0,6.0,32,0.00,,,0.01,Wunderground v.1.15,2013-02-24 20:45:00,
2013-02-24 15:50:00,60.2,29.4,29.83,NE,55,5.0,7.0,31,0.00,,,0.01,Wunderground v.1.15,2013-02-24 20:50:00,
2013-02-24 15:55:00,60.0,30.0,29.83,NNE,32,5.0,7.0,32,0.00,,,0.01,Wunderground v.1.15,2013-02-24 20:55:00,
2013-02-24 16:01:00,60.2,30.2,29.83,NNE,22,5.0,5.0,32,0.00,,,0.01,Wunderground v.1.15,2013-02-24 21:01:00,
2013-02-24 16:10:00,60.2,29.4,29.84,NNE,32,6.0,8.0,31,0.00,,,0.01,Wunderground v.1.15,2013-02-24 21:10:00,
2013-02-24 16:20:00,59.8,29.1,29.84,North,11,6.0,7.0,31,0.00,,,0.01,Wunderground v.1.15,2013-02-24 21:20:00,
2013-02-24 16:25:00,59.8,27.4,29.84,NE,43,6.0,7.0,29,0.00,,,0.01,Wunderground v.1.15,2013-02-24 21:25:00,
2013-02-24 16:30:00,59.7,29.0,29.83,NE,51,4.0,11.0,31,0.00,,,0.01,Wunderground v.1.15,2013-02-24 21:30:00,
2013-02-24 16:35:00,59.6,28.1,29.84,North,5,4.0,11.0,30,0.00,,,0.01,Wunderground v.1.15,2013-02-24 21:35:00,
2013-02-24 16:40:00,59.6,28.9,29.84,NNE,13,4.0,6.0,31,0.00,,,0.01,Wunderground v.1.15,2013-02-24 21:40:00,
2013-02-24 16:50:00,59.6,27.3,29.84,NE,56,4.0,4.0,29,0.00,,,0.01,Wunderground v.1.15,2013-02-24 21:50:00,
2013-02-24 16:55:00,59.4,28.7,29.84,NNE,24,4.0,5.0,31,0.00,,,0.01,Wunderground v.1.15,2013-02-24 21:55:00,
2013-02-24 17:00:00,59.2,29.3,29.84,NE,50,5.0,5.0,32,0.00,,,0.01,Wunderground v.1.15,2013-02-24 22:00:00,
2013-02-24 17:10:00,58.9,29.1,29.84,NE,45,3.0,5.0,32,0.00,,,0.01,Wunderground v.1.15,2013-02-24 22:10:00,
2013-02-24 17:15:00,58.6,27.2,29.84,NE,54,4.0,5.0,30,0.00,,,0.01,Wunderground v.1.15,2013-02-24 22:15:00,
2013-02-24 17:25:00,58.1,29.1,29.85,ENE,69,2.0,4.0,33,0.00,,,0.01,Wunderground v.1.15,2013-02-24 22:25:00,
2013-02-24 17:30:00,58.0,28.3,29.85,East,80,1.0,2.0,32,0.00,,,0.01,Wunderground v.1.15,2013-02-24 22:30:00,
2013-02-24 17:35:00,57.7,28.8,29.85,ENE,66,2.0,2.0,33,0.00,,,0.01,Wunderground v.1.15,2013-02-24 22:35:00,
2013-02-24 17:40:00,57.4,27.7,29.85,ENE,78,2.0,2.0,32,0.00,,,0.01,Wunderground v.1.15,2013-02-24 22:40:00,
2013-02-24 17:45:00,57.0,28.9,29.86,NE,48,2.0,7.0,34,0.00,,,0.01,Wunderground v.1.15,2013-02-24 22:45:00,
2013-02-24 17:55:00,56.0,26.5,29.86,ENE,58,4.0,5.0,32,0.00,,,0.01,Wunderground v.1.15,2013-02-24 22:55:00,
2013-02-24 18:00:00,55.6,27.6,29.86,NE,55,4.0,5.0,34,0.00,,,0.01,Wunderground v.1.15,2013-02-24 23:00:00,
2013-02-24 18:05:00,55.1,27.2,29.86,ENE,57,4.0,11.0,34,0.00,,,0.01,Wunderground v.1.15,2013-02-24 23:05:00,
2013-02-24 18:10:00,54.6,26.8,29.86,ENE,57,4.0,4.0,34,0.00,,,0.01,Wunderground v.1.15,2013-02-24 23:10:00,
2013-02-24 18:15:00,54.1,27.0,29.87,NE,51,4.0,5.0,35,0.00,,,0.01,Wunderground v.1.15,2013-02-24 23:15:00,
2013-02-24 18:20:00,53.7,28.0,29.87,ENE,74,4.0,4.0,37,0.00,,,0.01,Wunderground v.1.15,2013-02-24 23:20:00,
2013-02-24 18:30:00,52.7,27.1,29.88,ENE,60,4.0,11.0,37,0.00,,,0.01,Wunderground v.1.15,2013-02-24 23:30:00,
2013-02-24 18:35:00,52.4,28.1,29.88,NE,54,2.0,11.0,39,0.00,,,0.01,Wunderground v.1.15,2013-02-24 23:35:00,
2013-02-24 18:40:00,52.0,27.8,29.89,ENE,67,2.0,2.0,39,0.00,,,0.01,Wunderground v.1.15,2013-02-24 23:40:00,
2013-02-24 18:45:00,51.6,28.0,29.89,NE,46,2.0,11.0,40,0.00,,,0.01,Wunderground v.1.15,2013-02-24 23:45:00,
2013-02-24 18:50:00,51.3,27.8,29.89,ENE,61,1.0,1.0,40,0.00,,,0.01,Wunderground v.1.15,2013-02-24 23:50:00,
2013-02-24 18:55:00,51.1,28.2,29.90,ENE,60,1.0,5.0,41,0.00,,,0.01,Wunderground v.1.15,2013-02-24 23:55:00,
2013-02-24 19:00:00,50.9,28.0,29.90,ENE,67,2.0,11.0,41,0.00,,,0.01,Wunderground v.1.15,2013-02-25 00:00:00,
2013-02-24 19:05:00,50.5,28.2,29.90,NE,55,3.0,11.0,42,0.00,,,0.01,Wunderground v.1.15,2013-02-25 00:05:00,
2013-02-24 19:10:00,50.3,28.6,29.90,ENE,61,3.0,3.0,43,0.00,,,0.01,Wunderground v.1.15,2013-02-25 00:10:00,
2013-02-24 19:15:00,50.1,29.0,29.90,NE,56,3.0,11.0,44,0.00,,,0.01,Wunderground v.1.15,2013-02-25 00:15:00,
2013-02-24 19:20:00,50.0,28.4,29.90,NE,55,3.0,11.0,43,0.00,,,0.01,Wunderground v.1.15,2013-02-25 00:20:00,
2013-02-24 19:30:00,50.0,28.9,29.91,ENE,69,5.0,5.0,44,0.00,,,0.01,Wunderground v.1.15,2013-02-25 00:30:00,
2013-02-24 19:35:00,49.8,28.7,29.92,NE,55,4.0,6.0,44,0.00,,,0.01,Wunderground v.1.15,2013-02-25 00:35:00,
2013-02-24 19:40:00,49.7,28.6,29.92,ENE,71,4.0,11.0,44,0.00,,,0.01,Wunderground v.1.15,2013-02-25 00:40:00,
2013-02-24 19:45:00,49.3,29.4,29.92,ENE,74,4.0,11.0,46,0.00,,,0.01,Wunderground v.1.15,2013-02-25 00:45:00,
2013-02-24 19:50:00,48.9,29.0,29.92,ENE,74,2.0,2.0,46,0.00,,,0.01,Wunderground v.1.15,2013-02-25 00:50:00,
2013-02-24 19:55:00,48.6,28.7,29.92,ENE,71,1.0,11.0,46,0.00,,,0.01,Wunderground v.1.15,2013-02-25 00:55:00,
2013-02-24 20:05:00,47.4,28.7,29.93,ENE,73,0.0,2.0,48,0.00,,,0.01,Wunderground v.1.15,2013-02-25 01:05:00,
2013-02-24 20:10:00,47.3,29.1,29.92,ENE,66,1.0,1.0,49,0.00,,,0.01,Wunderground v.1.15,2013-02-25 01:10:00,
2013-02-24 20:15:00,47.1,28.9,29.93,ENE,68,1.0,3.0,49,0.00,,,0.01,Wunderground v.1.15,2013-02-25 01:15:00,
2013-02-24 20:20:00,47.2,29.0,29.93,ENE,71,1.0,1.0,49,0.00,,,0.01,Wunderground v.1.15,2013-02-25 01:20:00,
2013-02-24 20:25:00,47.0,28.8,29.93,NE,53,1.0,11.0,49,0.00,,,0.01,Wunderground v.1.15,2013-02-25 01:25:00,
2013-02-24 20:30:00,46.9,28.7,29.92,NE,52,0.0,11.0,49,0.00,,,0.01,Wunderground v.1.15,2013-02-25 01:30:00,
2013-02-24 20:40:00,45.6,29.4,29.93,NE,52,0.0,11.0,53,0.00,,,0.01,Wunderground v.1.15,2013-02-25 01:40:00,
2013-02-24 20:45:00,44.5,28.9,29.93,NE,52,0.0,11.0,54,0.00,,,0.01,Wunderground v.1.15,2013-02-25 01:45:00,
2013-02-24 20:50:00,43.7,28.1,29.93,NE,52,0.0,11.0,54,0.00,,,0.01,Wunderground v.1.15,2013-02-25 01:50:00,
2013-02-24 20:55:00,43.6,28.5,29.93,NE,52,0.0,11.0,55,0.00,,,0.01,Wunderground v.1.15,2013-02-25 01:55:00,
2013-02-24 21:00:00,43.3,28.6,29.93,NE,52,0.0,11.0,56,0.00,,,0.01,Wunderground v.1.15,2013-02-25 02:00:00,
2013-02-24 21:05:00,43.6,28.5,29.94,NE,52,0.0,11.0,55,0.00,,,0.01,Wunderground v.1.15,2013-02-25 02:05:00,
2013-02-24 21:10:00,43.6,28.9,29.94,NE,52,0.0,11.0,56,0.00,,,0.01,Wunderground v.1.15,2013-02-25 02:10:00,
2013-02-24 21:20:00,42.4,28.7,29.93,NE,52,0.0,11.0,58,0.00,,,0.01,Wunderground v.1.15,2013-02-25 02:20:00,
2013-02-24 21:25:00,41.4,28.5,29.93,NE,52,0.0,11.0,60,0.00,,,0.01,Wunderground v.1.15,2013-02-25 02:25:00,
2013-02-24 21:35:00,42.8,27.7,29.93,ENE,67,0.0,11.0,55,0.00,,,0.01,Wunderground v.1.15,2013-02-25 02:35:00,
2013-02-24 21:45:00,45.5,28.4,29.93,NE,42,4.0,11.0,51,0.00,,,0.01,Wunderground v.1.15,2013-02-25 02:45:00,
2013-02-24 21:55:00,46.5,27.8,29.94,NE,52,4.0,11.0,48,0.00,,,0.01,Wunderground v.1.15,2013-02-25 02:55:00,
2013-02-24 22:00:00,46.3,28.2,29.93,ENE,68,3.0,11.0,49,0.00,,,0.01,Wunderground v.1.15,2013-02-25 03:00:00,
2013-02-24 22:05:00,46.1,28.0,29.93,NE,55,2.0,11.0,49,0.00,,,0.01,Wunderground v.1.15,2013-02-25 03:05:00,
2013-02-24 22:10:00,45.9,27.8,29.93,ENE,71,1.0,1.0,49,0.00,,,0.01,Wunderground v.1.15,2013-02-25 03:10:00,
2013-02-24 22:20:00,44.5,28.0,29.93,East,89,0.0,11.0,52,0.00,,,0.01,Wunderground v.1.15,2013-02-25 03:20:00,
2013-02-24 22:30:00,42.3,27.3,29.93,East,89,0.0,11.0,55,0.00,,,0.01,Wunderground v.1.15,2013-02-25 03:30:00,
2013-02-24 22:40:00,40.6,27.8,29.93,East,89,0.0,11.0,60,0.00,,,0.01,Wunderground v.1.15,2013-02-25 03:40:00,
2013-02-24 22:45:00,40.1,27.7,29.93,East,89,0.0,11.0,61,0.00,,,0.01,Wunderground v.1.15,2013-02-25 03:45:00,
2013-02-24 22:55:00,39.3,27.7,29.93,East,89,0.0,11.0,63,0.00,,,0.01,Wunderground v.1.15,2013-02-25 03:55:00,
2013-02-24 23:00:00,39.1,28.7,29.93,East,89,0.0,11.0,66,0.00,,,0.01,Wunderground v.1.15,2013-02-25 04:00:00,
2013-02-24 23:05:00,38.5,28.1,29.93,East,89,0.0,11.0,66,0.00,,,0.01,Wunderground v.1.15,2013-02-25 04:05:00,
2013-02-24 23:10:00,37.9,27.5,29.93,East,89,0.0,11.0,66,0.00,,,0.01,Wunderground v.1.15,2013-02-25 04:10:00,
2013-02-24 23:15:00,37.3,27.3,29.93,East,89,0.0,11.0,67,0.00,,,0.01,Wunderground v.1.15,2013-02-25 04:15:00,
2013-02-24 23:20:00,36.9,28.0,29.93,East,89,0.0,11.0,70,0.00,,,0.01,Wunderground v.1.15,2013-02-25 04:20:00,
2013-02-24 23:30:00,35.9,28.1,29.94,East,89,0.0,11.0,73,0.00,,,0.01,Wunderground v.1.15,2013-02-25 04:30:00,
2013-02-24 23:35:00,35.4,27.9,29.93,East,89,0.0,11.0,74,0.00,,,0.01,Wunderground v.1.15,2013-02-25 04:35:00,
2013-02-24 23:40:00,35.1,28.0,29.93,East,89,0.0,11.0,75,0.00,,,0.01,Wunderground v.1.15,2013-02-25 04:40:00,
2013-02-24 23:45:00,34.7,27.9,29.93,East,89,0.0,11.0,76,0.00,,,0.01,Wunderground v.1.15,2013-02-25 04:45:00,
2013-02-24 23:50:00,35.2,27.4,29.93,East,88,0.0,11.0,73,0.00,,,0.01,Wunderground v.1.15,2013-02-25 04:50:00,